Find Hispasat 1C

NORAD ID: 26071 Int'l Des: 2000-007 Owner: HISP Country: E operational
HEOCIRCULAR

Live Position

Loading 3D Globe...

About Hispasat 1C

Description loading...

Upcoming Passes

Passes for default location (London). Set your location on the main map for personalized predictions.

Altitude History

Loading altitude history...

Two-Line Element Set

1 26071U 00007A 26111.57827103 -.00000047 00000-0 00000-0 0 9999
2 26071 8.2543 64.2619 0005231 242.2367 131.7920 0.99204154 46732
Epoch: Apr 21, 2026 • Age: 12 hours

Current Status

Altitude 36075.2 km
Velocity 3.06 km/s
Sub-Earth Point -1.17°S, 18.46°E
Launch Date Feb 3, 2000
Age 26.2 years
Type other

Technical Details

Classification Payload
Mass 3112.00 kg
Dry Mass 1300.00 kg
Total Mass 3112.00 kg
Length 4.20 m
Diameter 2.50 m
Span 26.00 m
Shape Box + 2 Pan
Manufacturer ALC
Bus Type Spacebus 3000B2
Phase Status Renamed
Owner/State HISP/E

Most Searched